Aspen, CO

3:16 AM MDT on April 28, 2017 (GMT -0600)
Aspen-Pitkin County / Sardy Field

Weather History for KASE - May, 2013

Change the Weather History Date:

Sunday, May 26, 2013

  Actual Average Record
Temperature  
Mean Temperature 56 °F 51 °F  
Max Temperature 75 °F 66 °F 77 °F (2006)
Min Temperature 36 °F 36 °F 31 °F (2016)
Degree Days  
Heating Degree Days 9 14  
Month to date heating degree days 450 450  
Since 1 July heating degree days 8361 8580  
Cooling Degree Days 0 0  
Month to date cooling degree days 0 0  
Year to date cooling degree days 0 0  
Growing Degree Days 5 (Base 50)    
Moisture  
Dew Point 20 °F    
Average Humidity 34    
Maximum Humidity 59    
Minimum Humidity 9    
Precipitation  
Precipitation 0.00 in 0.03 in 0.18 in (2000)
Month to date precipitation 1.88 1.35  
Year to date precipitation 6.49 6.75  
Sea Level Pressure  
Sea Level Pressure 29.79 in    
Wind  
Wind Speed 7 mph (SW)    
Max Wind Speed 21 mph    
Max Gust Speed 31 mph    
Visibility 10 miles    
Events      
T = Trace of Precipitation, MM = Missing Value Source: NWS Daily Summary

Daily Weather History Graph

Daily Weather History Graph

Search for Another Location

Airport or City:

Trip Planner

Search our weather history database for the weather conditions in past years. The results will help you decide how hot, cold, wet, or windy it might be!

Date:

Astronomy

May. 26, 2013 Rise Set
Actual Time 5:45 AM MDT 8:23 PM MDT
Civil Twilight 5:14 AM MDT 8:54 PM MDT
Nautical Twilight 4:35 AM MDT 9:33 PM MDT
Astronomical Twilight 3:52 AM MDT 10:17 PM MDT
Moon 10:14 PM MDT (5/26) 7:18 AM MDT (5/26)
Length of Visible Light 15h 40m
Length of Day
14h 37m
Waning Gibbous, 96% of the Moon is Illuminated
May 26
Waning Gibbous
May 31
Last Quarter
Jun 8
New
Jun 16
First Quarter
Jun 23
Full

Hourly Weather History & Observations

Time (MDT) Temp. Windchill Dew Point Humidity Pressure Visibility Wind Dir Wind Speed Gust Speed Precip Events Conditions
12:53 AM 48.9 °F - 23.0 °F 36% 29.82 in 10.0 mi SSW 6.9 mph - N/A   Clear
1:53 AM 43.0 °F 37.7 °F 25.0 °F 49% 29.80 in 10.0 mi SW 9.2 mph - N/A   Clear
2:53 AM 43.0 °F 38.8 °F 24.1 °F 47% 29.80 in 10.0 mi SSW 6.9 mph - N/A   Clear
3:53 AM 39.9 °F - 24.1 °F 53% 29.84 in 10.0 mi Calm Calm - N/A   Clear
4:53 AM 42.1 °F 40.2 °F 23.0 °F 47% 29.83 in 10.0 mi South 3.5 mph - N/A   Clear
5:53 AM 37.9 °F 32.7 °F 24.1 °F 57% 29.86 in 10.0 mi SSW 6.9 mph - N/A   Clear
6:53 AM 43.0 °F 40.3 °F 24.1 °F 47% 29.86 in 10.0 mi South 4.6 mph - N/A   Scattered Clouds
7:53 AM 53.1 °F - 24.1 °F 32% 29.83 in 10.0 mi South 8.1 mph - N/A   Clear
8:53 AM 55.0 °F - 27.0 °F 34% 29.87 in 10.0 mi North 5.8 mph - N/A   Clear
9:53 AM 63.0 °F - 21.9 °F 21% 29.82 in 10.0 mi North 5.8 mph - N/A   Clear
10:53 AM 66.9 °F - 15.1 °F 14% 29.80 in 10.0 mi NNW 4.6 mph - N/A   Clear
11:53 AM 70.0 °F - 15.1 °F 12% 29.78 in 10.0 mi SSW 8.1 mph - N/A   Clear
12:53 PM 71.1 °F - 9.0 °F 9% 29.75 in 10.0 mi WSW 8.1 mph - N/A   Clear
1:53 PM 72.0 °F - 12.0 °F 10% 29.75 in 10.0 mi WSW 12.7 mph 20.7 mph N/A   Partly Cloudy
2:53 PM 72.0 °F - 12.0 °F 10% 29.75 in 10.0 mi Variable 6.9 mph 20.7 mph N/A   Clear
3:53 PM 73.9 °F - 18.0 °F 12% 29.73 in 10.0 mi West 8.1 mph - N/A   Clear
4:53 PM 73.0 °F - 19.9 °F 14% 29.71 in 10.0 mi WNW 10.4 mph - N/A   Clear
5:53 PM 70.0 °F - 18.0 °F 14% 29.75 in 10.0 mi West 11.5 mph 20.7 mph N/A   Clear
6:53 PM 68.0 °F - 17.1 °F 14% 29.73 in 10.0 mi WSW 8.1 mph - N/A   Clear
7:53 PM 60.1 °F - 21.9 °F 23% 29.75 in 10.0 mi SW 3.5 mph - N/A   Clear
8:53 PM 54.0 °F - 23.0 °F 30% 29.79 in 10.0 mi SSW 6.9 mph - N/A   Clear
9:53 PM 53.1 °F - 23.0 °F 31% 29.79 in 10.0 mi South 6.9 mph - N/A   Clear
10:53 PM 50.0 °F - 23.0 °F 35% 29.80 in 10.0 mi SSW 8.1 mph - N/A   Clear
11:53 PM 48.0 °F - 21.0 °F 34% 29.79 in 10.0 mi SSW 8.1 mph - N/A   Clear